Tracking 17636 objects as of 29-April-2016
HD Live streaming from Space Station
objects crossing your sky now

COSMOS 2251 DEB

Track COSMOS 2251 DEB now!
10-day predictions


NORAD ID: 34781
Int'l Code: 1993-036AAJ
Perigee: 512.4 km
Apogee: 530.1 km
Inclination: 74.0 °
Period: 94.9 minutes
Semi major axis: 6892 km
RCS: 0.0067 m2 (small)
Launch date: June 16, 1993
Source: Commonwealth of Independent States (former USSR) (CIS)
Launch site: PLESETSK MISSILE AND SPACE COMPLEX (PKMTR)

Note: This is SATELLITE DEBRIS
Your satellite tracking list
Your tracking list is empty





NASA's NSSDC Master Catalog

Two Line Element Set (TLE):
1 34781U 93036AAJ 16119.83023435  .00036259  00000-0  18099-2 0  9994
2 34781  74.0382  26.7658 0012808  53.2116   7.9497 15.17263552378797
Source of the keplerian elements: AFSPC

N2YO: 465